| time (UTC) | temp C | wind direction | speed KPH | gust KPH | rain 1hr cm | rain 24hr cm | rain mn cm | humidity % | barometer mb |
| 20260505223101 | 26 | 110 | 4.8 | 0.0 | 0.00 | 0.00 | 0.00 | 94 | 1009.0 |
| 20260505221557 | 26 | 110 | 4.8 | 0.0 | 0.00 | 0.00 | 0.00 | 94 | 1009.0 |
| 20260505214600 | 26 | 110 | 4.8 | 0.0 | 0.00 | 0.00 | 0.00 | 94 | 1009.0 |
| 20260505213107 | 26 | 110 | 8.0 | 0.0 | 0.00 | 0.00 | 0.00 | 94 | 1009.0 |
| 20260505211602 | 26 | 110 | 8.0 | 0.0 | 0.00 | 0.00 | 0.00 | 94 | 1009.0 |
| 20260505204605 | 26 | 130 | 4.8 | 0.0 | 0.00 | 0.00 | 0.00 | 94 | 1009.0 |
| 20260505203101 | 26 | 130 | 4.8 | 0.0 | 0.00 | 0.00 | 0.00 | 96 | 1009.0 |
| 20260505201601 | 26 | 130 | 4.8 | 0.0 | 0.00 | 0.00 | 0.00 | 97 | 1009.0 |
| 20260505200110 | 26 | 140 | 4.8 | 0.0 | 0.00 | 0.00 | 0.00 | 100 | 1009.0 |
| 20260505194600 | 26 | 140 | 4.8 | 0.0 | 0.00 | 0.00 | 0.00 | 100 | 1009.0 |
| 20260505193111 | 27 | 0 | 1.6 | 0.0 | 0.00 | 0.00 | 0.00 | 100 | 1009.0 |
| 20260505191601 | 26 | 0 | 1.6 | 0.0 | 0.00 | 0.00 | 0.00 | 100 | 1009.0 |
| 20260505190104 | 27 | 0 | 3.2 | 0.0 | 0.00 | 0.00 | 0.00 | 100 | 1009.0 |
| 20260505184601 | 26 | 0 | 3.2 | 0.0 | 0.00 | 0.00 | 0.00 | 100 | 1009.0 |
| 20260505183101 | 27 | 200 | 11.3 | 0.0 | 0.00 | 0.00 | 0.00 | 89 | 1009.0 |
| 20260505181607 | 27 | 200 | 11.3 | 0.0 | 0.00 | 0.00 | 0.00 | 89 | 1010.0 |
| 20260505180103 | 27 | 200 | 11.3 | 0.0 | 0.00 | 0.00 | 0.00 | 89 | 1010.0 |
| 20260505174606 | 27 | 200 | 11.3 | 0.0 | 0.00 | 0.00 | 0.00 | 89 | 1010.0 |
| 20260505173104 | 27 | 200 | 11.3 | 0.0 | 0.00 | 0.00 | 0.00 | 89 | 1010.0 |
| 20260505171602 | 27 | 200 | 11.3 | 0.0 | 0.00 | 0.00 | 0.00 | 89 | 1010.0 |
| 20260505170108 | 27 | 200 | 11.3 | 0.0 | 0.00 | 0.00 | 0.00 | 89 | 1010.0 |
| 20260505164606 | 27 | 200 | 11.3 | 0.0 | 0.00 | 0.00 | 0.00 | 89 | 1010.0 |
| 20260505164601 | 27 | 200 | 11.3 | 0.0 | 0.00 | 0.00 | 0.00 | 89 | 1010.0 |
| 20260505163102 | 27 | 200 | 11.3 | 0.0 | 0.00 | 0.00 | 0.00 | 89 | 1011.0 |
| 20260505161601 | 27 | 200 | 11.3 | 0.0 | 0.00 | 0.00 | 0.00 | 89 | 1011.0 |
| 20260505160117 | 27 | 200 | 11.3 | 0.0 | 0.00 | 0.00 | 0.00 | 89 | 1011.0 |
| 20260505153105 | 27 | 200 | 11.3 | 0.0 | 0.00 | 0.00 | 0.00 | 89 | 1011.0 |
| 20260505151604 | 27 | 200 | 11.3 | 0.0 | 0.00 | 0.00 | 0.00 | 89 | 1011.0 |
| 20260505150111 | 27 | 200 | 11.3 | 0.0 | 0.00 | 0.00 | 0.00 | 89 | 1011.0 |
| 20260505140108 | 27 | 200 | 11.3 | 0.0 | 0.13 | 0.00 | 0.00 | 89 | 1011.0 |
| 20260505130105 | 27 | 200 | 11.3 | 0.0 | 0.18 | 0.00 | 0.00 | 89 | 1010.0 |
| 20260505124604 | 28 | 200 | 11.3 | 0.0 | 0.00 | 0.00 | 0.00 | 89 | 1010.0 |
| 20260505123106 | 27 | 200 | 11.3 | 0.0 | 0.00 | 0.00 | 0.00 | 89 | 1010.0 |
| 20260505121601 | 27 | 200 | 11.3 | 0.0 | 0.00 | 0.00 | 0.00 | 89 | 1009.0 |
| 20260505120103 | 26 | 200 | 11.3 | 0.0 | 0.00 | 0.00 | 0.00 | 89 | 1009.0 |
| 20260505114600 | 26 | 200 | 11.3 | 0.0 | 0.00 | 0.00 | 0.00 | 89 | 1009.0 |
| 20260505113106 | 25 | 200 | 11.3 | 0.0 | 0.00 | 0.00 | 0.00 | 89 | 1009.0 |
| 20260505111559 | 28 | 110 | 14.5 | 0.0 | 0.00 | 0.00 | 0.00 | 89 | 1008.0 |
| 20260505110107 | 28 | 110 | 14.5 | 0.0 | 0.00 | 0.00 | 0.00 | 89 | 1009.0 |
| 20260505101558 | 30 | 300 | 14.5 | 0.0 | 0.00 | 0.00 | 0.00 | 79 | 1008.0 |
| 20260505094557 | 30 | 320 | 12.9 | 0.0 | 0.00 | 0.00 | 0.00 | 74 | 1008.0 |
| 20260505093058 | 31 | 330 | 12.9 | 0.0 | 0.00 | 0.00 | 0.00 | 74 | 1008.0 |
| 20260505091557 | 30 | 330 | 12.9 | 0.0 | 0.00 | 0.00 | 0.00 | 74 | 1007.0 |
| 20260505090059 | 32 | 360 | 12.9 | 0.0 | 0.00 | 0.00 | 0.00 | 66 | 1007.0 |
| 20260505084556 | 32 | 360 | 12.9 | 0.0 | 0.00 | 0.00 | 0.00 | 72 | 1007.0 |
| 20260505083100 | 31 | 25 | 9.7 | 9.7 | 0.00 | 0.00 | 0.00 | 72 | 1007.0 |
| 20260505081601 | 32 | 51 | 8.0 | 9.7 | 0.00 | 0.00 | 0.00 | 70 | 1007.0 |
| 20260505080100 | 32 | 51 | 8.0 | 9.7 | 0.00 | 0.00 | 0.00 | 69 | 1007.0 |
| 20260505074600 | 32 | 51 | 8.0 | 9.7 | 0.00 | 0.00 | 0.00 | 69 | 1007.0 |
| 20260505073100 | 32 | 51 | 8.0 | 9.7 | 0.05 | 0.00 | 0.00 | 68 | 1007.0 |
| 20260505071601 | 33 | 66 | 9.7 | 9.7 | 0.00 | 0.00 | 0.00 | 68 | 1007.0 |
| 20260505070103 | 32 | 65 | 9.7 | 9.7 | 0.00 | 0.00 | 0.00 | 68 | 1008.0 |
| 20260505064601 | 33 | 66 | 9.7 | 9.7 | 0.00 | 0.00 | 0.00 | 66 | 1007.0 |
| 20260505063103 | 32 | 65 | 9.7 | 9.7 | 0.03 | 0.00 | 0.00 | 67 | 1008.0 |
| 20260505061601 | 32 | 76 | 11.3 | 11.3 | 0.00 | 0.00 | 0.00 | 69 | 1008.0 |
| 20260505060105 | 32 | 76 | 11.3 | 11.3 | 0.00 | 0.00 | 0.00 | 69 | 1008.0 |
| 20260505054601 | 32 | 76 | 11.3 | 11.3 | 0.00 | 0.00 | 0.00 | 69 | 1008.0 |
| 20260505053104 | 32 | 69 | 8.0 | 8.0 | 0.03 | 0.00 | 0.00 | 69 | 1008.0 |
| 20260505051602 | 32 | 67 | 9.7 | 9.7 | 0.00 | 0.00 | 0.00 | 72 | 1009.0 |
| 20260505050108 | 32 | 67 | 9.7 | 9.7 | 0.00 | 0.00 | 0.00 | 70 | 1009.0 |
| 20260505041603 | 32 | 71 | 9.7 | 9.7 | 0.00 | 0.00 | 0.00 | 74 | 1010.0 |
| 20260505040109 | 32 | 79 | 9.7 | 11.3 | 0.00 | 0.00 | 0.00 | 71 | 1010.0 |
| 20260505034604 | 31 | 71 | 9.7 | 9.7 | 0.00 | 0.00 | 0.00 | 73 | 1010.0 |
| 20260505033110 | 31 | 79 | 8.0 | 9.7 | 0.00 | 0.00 | 0.00 | 75 | 1011.0 |
| 20260505031605 | 31 | 79 | 8.0 | 9.7 | 0.00 | 0.00 | 0.00 | 79 | 1011.0 |
| 20260505030113 | 31 | 79 | 8.0 | 9.7 | 0.00 | 0.00 | 0.00 | 75 | 1011.0 |
| 20260505024603 | 31 | 88 | 8.0 | 9.7 | 0.00 | 0.00 | 0.00 | 78 | 1011.0 |
| 20260505023110 | 31 | 93 | 6.4 | 9.7 | 0.00 | 0.00 | 0.00 | 81 | 1011.0 |
| 20260505021605 | 30 | 93 | 6.4 | 9.7 | 0.00 | 0.00 | 0.00 | 83 | 1011.0 |
| 20260505020120 | 31 | 100 | 8.0 | 9.7 | 0.00 | 0.00 | 0.00 | 80 | 1011.0 |
| 20260505014609 | 30 | 93 | 6.4 | 9.7 | 0.00 | 0.00 | 0.00 | 83 | 1011.0 |
| 20260505013116 | 30 | 117 | 8.0 | 11.3 | 0.00 | 0.00 | 0.00 | 85 | 1011.0 |
| 20260505011606 | 30 | 114 | 6.4 | 9.7 | 0.00 | 0.00 | 0.00 | 88 | 1011.0 |
| 20260505010117 | 29 | 114 | 6.4 | 9.7 | 0.00 | 0.00 | 0.00 | 85 | 1011.0 |
| 20260505004608 | 29 | 114 | 6.4 | 9.7 | 0.00 | 0.00 | 0.00 | 88 | 1011.0 |
| 20260505003117 | 28 | 114 | 6.4 | 9.7 | 0.00 | 0.00 | 0.00 | 87 | 1011.0 |
| 20260505001605 | 28 | 135 | 6.4 | 9.7 | 0.00 | 0.00 | 0.00 | 91 | 1010.0 |
| 20260505000115 | 28 | 135 | 6.4 | 9.7 | 0.00 | 0.00 | 0.00 | 91 | 1010.0 |
| 20260504234606 | 28 | 134 | 4.8 | 8.0 | 0.00 | 0.00 | 0.00 | 92 | 1010.0 |
| 20260504233115 | 28 | 134 | 4.8 | 8.0 | 0.00 | 0.00 | 0.00 | 92 | 1010.0 |
| 20260504231608 | 28 | 155 | 6.4 | 8.0 | 0.00 | 0.00 | 0.00 | 93 | 1009.0 |
| 20260504230123 | 28 | 155 | 6.4 | 8.0 | 0.00 | 0.00 | 0.00 | 93 | 1009.0 |
| 20260504224605 | 27 | 155 | 6.4 | 8.0 | 0.00 | 0.00 | 0.00 | 93 | 1009.0 |